Flag for Taiwan Weather past 2 weeks in Taichung, Taiwan

Now
77 °F

Passing clouds.


Feels Like: 79 °F
Forecast: 70 / 85 °F
Wind: 6 mph from East

Location: Chiang Kai Shek

Current Time: Apr 26, 2015 at 8:00:32 PM

Latest Report: Apr 26, 2015 at 7:30 PM


Visibility: N/A

Pressure: 29.95 "Hg

Humidity: 74%

Dew point: 68 °F

Location of TaichungLocation

Historic Weather in Taichung — Graph

°F

Taichung temperature yesterday

Maximum temperature yesterday: 79 °F (at 9:30 AM)
Minimum temperature yesterday: 68 °F (at 2:00 AM)
Average temperature yesterday: 73 °F

Past Weeks' High & Low Weather Summary

 TemperatureHumidityPressure
High90 °F (Apr 20, 10:30 AM)100% (Apr 12, 12:00 AM)30.15 "Hg (Apr 12, 12:00 AM)
Low54 °F (Apr 14, 3:30 AM)27% (Apr 14, 1:00 PM)29.62 "Hg (Apr 20, 2:30 AM)
Average71 °F76%29.97 "Hg
* Reported Apr 11 7:00 PM — Apr 26 7:00 PM, Taichung, Weather by CustomWeather, © 2015

Note: Actual official high and low records may vary slightly from our data, if they occured in-between our weather recording intervals... More about our weather records

Advertising

Taichung weather history for previous 24 hours

 ConditionsComfort  
Time TempWeatherWind HumidityBarometerVisibility
7:00 PM
Sun, Apr 26
79 °FPassing clouds.6 mph65%29.95 "HgN/A
6:30 PM79 °FPassing clouds.8 mph65%29.95 "HgN/A
6:00 PM79 °FPartly sunny.8 mph65%29.95 "HgN/A
5:30 PM79 °FPartly sunny.10 mph65%29.95 "HgN/A
5:00 PM81 °FPartly sunny.14 mph62%29.92 "HgN/A
4:30 PM81 °FPartly sunny.13 mph62%29.92 "HgN/A
4:00 PM82 °FPartly sunny.14 mph58%29.92 "HgN/A
3:30 PM82 °FPartly sunny.15 mph58%29.92 "HgN/A
3:00 PM82 °FPartly sunny.15 mph58%29.92 "HgN/A
2:30 PM82 °FPartly sunny.14 mph58%29.95 "HgN/A
2:00 PM82 °FPartly sunny.14 mph58%29.95 "HgN/A
1:30 PM81 °FPartly sunny.14 mph62%29.95 "HgN/A
1:00 PM82 °FPartly sunny.14 mph62%29.98 "HgN/A
12:30 PM81 °FPartly sunny.18 mph62%30.01 "HgN/A
12:00 PM81 °FPartly sunny.17 mph62%30.01 "HgN/A
11:30 AM81 °FPartly sunny.17 mph62%30.01 "HgN/A
11:00 AM81 °FScattered clouds.16 mph66%30.01 "HgN/A
10:30 AM82 °FScattered clouds.7 mph55%30.04 "HgN/A
10:00 AM81 °FPartly sunny.8 mph62%30.04 "HgN/A
9:30 AM79 °FPartly sunny.9 mph65%30.04 "HgN/A
9:00 AM79 °FPartly sunny.9 mph61%30.07 "HgN/A
8:30 AM77 °FPartly sunny.8 mph65%30.04 "HgN/A
8:00 AM75 °FPartly sunny.8 mph69%30.04 "HgN/A
7:30 AM75 °FPartly sunny.7 mph69%30.04 "HgN/A
7:00 AM73 °FPassing clouds.7 mph74%30.01 "HgN/A
6:30 AM70 °FPassing clouds.7 mph78%30.01 "HgN/A
6:00 AM70 °FPassing clouds.5 mph78%30.01 "HgN/A
5:00 AM70 °FPassing clouds.7 mph78%29.98 "HgN/A
4:00 AM70 °FPassing clouds.6 mph73%29.98 "HgN/A
3:30 AM70 °FPassing clouds.7 mph73%29.98 "HgN/A
3:00 AM70 °FPassing clouds.8 mph73%29.98 "HgN/A
2:30 AM70 °FPassing clouds.8 mph73%29.98 "HgN/A
2:00 AM70 °FPassing clouds.8 mph73%29.98 "HgN/A
1:30 AM70 °FPassing clouds.9 mph69%30.01 "HgN/A
1:00 AM70 °FPassing clouds.10 mph69%30.01 "HgN/A
12:30 AM70 °FPassing clouds.12 mph69%30.01 "HgN/A
12:00 AM70 °FPassing clouds.12 mph69%30.01 "HgN/A
11:30 PM
Sat, Apr 25
70 °FPassing clouds.14 mph64%30.04 "HgN/A
11:00 PM70 °FPassing clouds.13 mph64%30.04 "HgN/A
10:30 PM70 °FPassing clouds.13 mph64%30.04 "HgN/A
10:00 PM70 °FPassing clouds.15 mph64%30.04 "HgN/A
9:30 PM70 °FPassing clouds.14 mph64%30.04 "HgN/A
9:00 PM70 °FPassing clouds.16 mph69%30.04 "HgN/A
8:30 PM70 °FPassing clouds.14 mph69%30.04 "HgN/A
8:00 PM70 °FPassing clouds.15 mph69%30.04 "HgN/A
Weather by CustomWeather, © 2015

See weather overviewHow to use our weather pages